This demonstration page uses our WeatherBlox Daily Observations layout. Learn more.

38.89511, -77.03637

Hourly Observations for February 14, 2015

Temp ( °F °C ) Dew Point ( °F °C ) Humidity (%) Winds ( mph kmh ) Pressure ( in mb ) Visibility ( mi km ) Precip ( " mm )
12:52 am 00:52 Mostly Cloudy 25 -3.9 6 -14.4 44 44 SSE 7 11 30.12 1020 10 16.0934 0 0
1:52 am 01:52 Mostly Cloudy 25 -3.9 9 -12.8 50 50 S 8 13 30.1 1019 10 16.0934 0 0
2:52 am 02:52 Partly Cloudy 24 -4.4 7 -13.9 48 48 S 10 17 30.06 1018 10 16.0934 0 0
3:52 am 03:52 Cloudy 25 -3.9 6 -14.4 44 44 SSW 7 11 30.04 1017 10 16.0934 0 0
4:52 am 04:52 Cloudy 26 -3.3 7 -13.9 44 44 SSW 5 7 30.01 1016 10 16.0934 0 0
5:52 am 05:52 Cloudy 26 -3.3 7 -13.9 44 44 S 9 15 29.98 1015 10 16.0934 0 0
6:52 am 06:52 Cloudy 27 -2.8 6 -14.4 41 41 S 8 13 29.95 1014 10 16.0934 0 0
7:52 am 07:52 Cloudy 28 -2.2 8 -13.3 43 43 S 9 15 29.93 1013 10 16.0934 0 0
8:52 am 08:52 Cloudy 30 -1.1 9 -12.8 41 41 S 8 13 29.89 1012 10 16.0934 0 0
9:52 am 09:52 Cloudy 31 -0.6 8 -13.3 38 38 SSW 12 19 29.85 1011 10 16.0934 0 0
10:52 am 10:52 Cloudy 33 0.6 9 -12.8 36 36 S 10 17 29.79 1009 10 16.0934 0 0
11:52 am 11:52 Cloudy 34 1.1 9 -12.8 35 35 S 9 15 29.74 1007 10 16.0934 0 0
12:52 pm 12:52 Cloudy 36 2.2 10 -12.2 34 34 SSW 16 26 29.67 1005 10 16.0934 0 0
1:52 pm 13:52 Mostly Cloudy 41 5 11 -11.7 29 29 S 20 31 29.6 1002 10 16.0934 0 0
2:52 pm 14:52 Cloudy 44 6.7 13 -10.6 28 28 S 17 28 29.54 1000 10 16.0934 0 0
3:52 pm 15:52 Cloudy 44 6.7 14 -10 30 30 SSW 18 30 29.51 999 10 16.0934 0 0
4:52 pm 16:52 Cloudy 44 6.7 16 -8.9 32 32 SSW 13 20 29.48 998 10 16.0934 0 0
5:52 pm 17:52 Cloudy 41 5 23 -5 49 49 Calm 29.46 998 10 16.0934 0 0
6:52 pm 18:52 Cloudy 39 3.9 28 -2.2 65 65 NNW 18 30 29.52 1000 7 11.26538 0 0
7:09 pm 19:09 Cloudy with Snow 37 3 28 -2 70 70 WNW 26 43 29.53 1000 0.25 0.402335 0 0.0254
7:14 pm 19:14 Cloudy with Snow 34 1 27 -3 75 75 WNW 30 48 29.56 1001 0.25 0.402335 0 0
7:18 pm 19:18 Cloudy with Snow 32 0 27 -3 80 80 WNW 28 44 29.56 1001 0.25 0.402335 0 0
7:26 pm 19:26 Windy with Snow Likely 32 0 27 -3 80 80 WNW 21 33 29.56 1001 0.5 0.80467 0 0
7:33 pm 19:33 Mostly Cloudy with Scattered Snow Showers 32 0 27 -3 80 80 NW 25 41 29.56 1001 1 1.60934 0 0.0254
7:52 pm 19:52 Windy with Snow Likely 32 0 25 -3.9 75 75 NW 26 43 29.58 1002 2 3.21868 0 0.0254
7:59 pm 19:59 Windy with Snow Likely 32 0 25 -4 75 75 NW 23 37 29.59 1002 3 4.82802 0 0.0254
8:08 pm 20:08 Mostly Cloudy 34 1 21 -6 60 60 NW 26 43 29.59 1002 8 12.87472 0 0
8:13 pm 20:13 Mostly Cloudy 34 1 19 -7 56 56 WNW 20 31 29.62 1003 9 14.48406 0 0.0254
8:25 pm 20:25 Mostly Cloudy 32 0 16 -9 51 51 WNW 24 39 29.65 1004 10 16.0934 0 0.0254
8:52 pm 20:52 Mostly Cloudy 31 -0.6 12 -11.1 45 45 NW 23 37 29.65 1004 10 16.0934 0 0.0254
9:52 pm 21:52 Mostly Cloudy 23 -5 6 -14.4 48 48 NW 22 35 29.78 1008 10 16.0934 0 0
10:52 pm 22:52 Mostly Clear 19 -7.2 -1 -18.3 41 41 NW 26 43 29.81 1010 10 16.0934 0 0
11:52 pm 23:52 Mostly Clear 18 -7.8 -5 -20.6 35 35 NW 21 33 29.85 1011 10 16.0934 0 0

Powered by AerisWeather